Location: Caramacate
(10.0289°N, 66.7587°W)
Time: 20:29:51
(UTC+00:00)

Helios 1A - Pass Details

Date: 05 August 2024
Orbit: 570 x 580 km, 98.3° (Epoch: 30 March)

Event Time Altitude Azimuth Distance (km) Brightness Sun altitude
Rises 23:03:11 0° 14° (NNE) 2,761 6.5 -4.3°
Reaches altitude 10° 23:05:20 10° 15° (NNE) 1,864 5.6 -4.8°
Maximum altitude 23:09:22 78° 101° (E) 584 2.8 -5.7°
Drops below altitude 10° 23:13:24 10° 188° (S) 1,866 5.4 -6.6°
Sets 23:15:32 0° 190° (S) 2,763 6.3 -7.1°
